AMI457 KIAD-KBHM

Flight info

Callsign AMI457
Flight time 1h 33m
Altitude 40000
Route CLTCH3 MAULS Q40 NIOLA DIODE
Aircraft LJ35/M-SGHRWXY/SB1

Departure

Time 2026-05-05 17:11
Airport Washington Dulles International Airport (KIAD)

Arrival

Time 2026-05-05 18:45
Airport Birmingham-Shuttlesworth International Airport (KBHM)
Time Latitude Longitude Altitude Speed Heading
2026-05-05 16:29 38.96817 -77.45428 315 ft 0 kts 137°
2026-05-05 16:53 38.96824 -77.45440 315 ft 2 kts 115°
2026-05-05 16:53 38.96826 -77.45463 315 ft 3 kts 82°
2026-05-05 16:53 38.96818 -77.45486 315 ft 3 kts 51°
2026-05-05 16:54 38.96817 -77.45488 315 ft 0 kts 48°
2026-05-05 16:54 38.96818 -77.45487 315 ft 0 kts 48°
2026-05-05 16:54 38.96822 -77.45482 315 ft 1 kts 42°
2026-05-05 16:54 38.96845 -77.45468 315 ft 6 kts 19°
2026-05-05 16:55 38.96875 -77.45489 315 ft 5 kts 291°
2026-05-05 16:55 38.96875 -77.45538 315 ft 6 kts 264°
2026-05-05 16:55 38.96856 -77.45575 315 ft 5 kts 200°
2026-05-05 16:55 38.96823 -77.45577 315 ft 5 kts 181°
2026-05-05 16:56 38.96790 -77.45578 315 ft 5 kts 181°
2026-05-05 16:56 38.96753 -77.45579 315 ft 6 kts 179°
2026-05-05 16:56 38.96712 -77.45579 315 ft 6 kts 180°
2026-05-05 16:56 38.96668 -77.45580 315 ft 6 kts 180°
2026-05-05 16:57 38.96623 -77.45580 315 ft 7 kts 180°
2026-05-05 16:57 38.96574 -77.45581 315 ft 7 kts 180°
2026-05-05 16:57 38.96524 -77.45582 315 ft 7 kts 180°
2026-05-05 16:57 38.96472 -77.45583 315 ft 8 kts 181°
2026-05-05 16:58 38.96419 -77.45584 315 ft 8 kts 181°
2026-05-05 16:58 38.96364 -77.45585 315 ft 8 kts 181°
2026-05-05 16:58 38.96308 -77.45586 315 ft 8 kts 181°
2026-05-05 16:58 38.96251 -77.45587 315 ft 8 kts 181°
2026-05-05 16:59 38.96192 -77.45589 315 ft 8 kts 181°
2026-05-05 16:59 38.96132 -77.45590 315 ft 9 kts 181°
2026-05-05 16:59 38.96072 -77.45590 315 ft 9 kts 180°
2026-05-05 16:59 38.96011 -77.45591 315 ft 9 kts 180°
2026-05-05 17:00 38.95949 -77.45592 315 ft 9 kts 180°
2026-05-05 17:00 38.95886 -77.45593 315 ft 9 kts 180°
2026-05-05 17:00 38.95822 -77.45594 315 ft 9 kts 180°
2026-05-05 17:00 38.95758 -77.45595 315 ft 9 kts 180°
2026-05-05 17:01 38.95693 -77.45595 315 ft 9 kts 180°
2026-05-05 17:01 38.95629 -77.45596 315 ft 9 kts 180°
2026-05-05 17:01 38.95563 -77.45597 315 ft 9 kts 180°
2026-05-05 17:01 38.95497 -77.45598 315 ft 10 kts 180°
2026-05-05 17:02 38.95430 -77.45599 315 ft 10 kts 180°
2026-05-05 17:02 38.95363 -77.45600 315 ft 10 kts 180°
2026-05-05 17:02 38.95296 -77.45601 315 ft 10 kts 180°
2026-05-05 17:02 38.95228 -77.45602 315 ft 10 kts 180°
2026-05-05 17:03 38.95160 -77.45603 315 ft 10 kts 180°
2026-05-05 17:03 38.95092 -77.45603 315 ft 10 kts 180°
2026-05-05 17:03 38.95023 -77.45604 315 ft 10 kts 180°
2026-05-05 17:03 38.94954 -77.45605 315 ft 10 kts 180°
2026-05-05 17:04 38.94885 -77.45606 315 ft 10 kts 180°
2026-05-05 17:04 38.94815 -77.45607 315 ft 10 kts 180°
2026-05-05 17:04 38.94745 -77.45608 315 ft 10 kts 180°
2026-05-05 17:04 38.94675 -77.45609 315 ft 10 kts 180°
2026-05-05 17:05 38.94605 -77.45611 315 ft 10 kts 180°
2026-05-05 17:05 38.94535 -77.45612 315 ft 10 kts 180°
2026-05-05 17:05 38.94464 -77.45613 315 ft 10 kts 180°
2026-05-05 17:05 38.94393 -77.45614 315 ft 10 kts 180°
2026-05-05 17:06 38.94322 -77.45614 315 ft 10 kts 180°
2026-05-05 17:06 38.94251 -77.45615 315 ft 10 kts 180°
2026-05-05 17:06 38.94180 -77.45616 315 ft 10 kts 180°
2026-05-05 17:06 38.94108 -77.45617 315 ft 10 kts 180°
2026-05-05 17:07 38.94036 -77.45617 315 ft 10 kts 180°
2026-05-05 17:07 38.93964 -77.45618 315 ft 10 kts 181°
2026-05-05 17:07 38.93892 -77.45620 315 ft 10 kts 180°
2026-05-05 17:07 38.93819 -77.45621 315 ft 10 kts 180°
2026-05-05 17:08 38.93747 -77.45622 315 ft 10 kts 181°
2026-05-05 17:08 38.93677 -77.45644 315 ft 10 kts 199°
2026-05-05 17:08 38.93608 -77.45676 315 ft 11 kts 201°
2026-05-05 17:08 38.93538 -77.45711 315 ft 11 kts 201°
2026-05-05 17:09 38.93497 -77.45731 315 ft 0 kts 201°
2026-05-05 17:09 38.93494 -77.45733 315 ft 1 kts 201°
2026-05-05 17:10 38.93472 -77.45744 315 ft 5 kts 201°
2026-05-05 17:10 38.93434 -77.45781 315 ft 9 kts 226°
2026-05-05 17:10 38.93440 -77.45868 315 ft 17 kts 289°
2026-05-05 17:10 38.93545 -77.46237 315 ft 72 kts 290°
2026-05-05 17:11 38.93793 -77.47088 315 ft 133 kts 288°
2026-05-05 17:11 38.94193 -77.48397 436 ft 172 kts 289°
2026-05-05 17:11 38.94620 -77.49937 774 ft 194 kts 281°
2026-05-05 17:11 38.94458 -77.51707 1081 ft 202 kts 241°
2026-05-05 17:12 38.93531 -77.53092 1627 ft 215 kts 217°
2026-05-05 17:12 38.92264 -77.54275 2169 ft 233 kts 211°
2026-05-05 17:12 38.90872 -77.55321 2686 ft 223 kts 206°
2026-05-05 17:12 38.89546 -77.56212 3165 ft 207 kts 205°
2026-05-05 17:13 38.88298 -77.57017 3634 ft 194 kts 205°
2026-05-05 17:13 38.87122 -77.57725 4108 ft 179 kts 203°
2026-05-05 17:13 38.86006 -77.58302 4573 ft 169 kts 201°
2026-05-05 17:13 38.84914 -77.58811 5071 ft 166 kts 201°
2026-05-05 17:14 38.83864 -77.59378 5580 ft 162 kts 205°
2026-05-05 17:14 38.82832 -77.59984 6089 ft 169 kts 206°
2026-05-05 17:14 38.81708 -77.60643 6632 ft 187 kts 206°
2026-05-05 17:14 38.80460 -77.61359 7181 ft 205 kts 206°
2026-05-05 17:15 38.79123 -77.62119 7697 ft 221 kts 207°
2026-05-05 17:15 38.77666 -77.62958 8215 ft 237 kts 207°
2026-05-05 17:15 38.76183 -77.63798 8714 ft 221 kts 207°
2026-05-05 17:15 38.74829 -77.64535 9190 ft 208 kts 207°
2026-05-05 17:16 38.73479 -77.65259 9695 ft 212 kts 207°
2026-05-05 17:16 38.72115 -77.66008 10204 ft 213 kts 208°
2026-05-05 17:16 38.70761 -77.66772 10717 ft 212 kts 208°
2026-05-05 17:16 38.69389 -77.67558 11240 ft 220 kts 208°
2026-05-05 17:17 38.67969 -77.68401 11748 ft 229 kts 209°
2026-05-05 17:17 38.66525 -77.69292 12250 ft 237 kts 209°
2026-05-05 17:17 38.65024 -77.70238 12753 ft 243 kts 210°
2026-05-05 17:17 38.63490 -77.71227 13258 ft 249 kts 210°
2026-05-05 17:18 38.61931 -77.72245 13760 ft 253 kts 211°
2026-05-05 17:18 38.60355 -77.73294 14268 ft 257 kts 211°
2026-05-05 17:18 38.58770 -77.74372 14779 ft 260 kts 212°
2026-05-05 17:18 38.57183 -77.75487 15279 ft 261 kts 213°
2026-05-05 17:19 38.55604 -77.76650 15780 ft 262 kts 215°
2026-05-05 17:19 38.54067 -77.77891 16281 ft 260 kts 219°
2026-05-05 17:19 38.52647 -77.79305 16783 ft 258 kts 225°
2026-05-05 17:19 38.51332 -77.80842 17282 ft 255 kts 229°
2026-05-05 17:20 38.50099 -77.82426 17776 ft 253 kts 231°
2026-05-05 17:20 38.48896 -77.84052 18274 ft 250 kts 232°
2026-05-05 17:20 38.47715 -77.85673 18772 ft 248 kts 232°
2026-05-05 17:20 38.46541 -77.87299 19273 ft 252 kts 232°
2026-05-05 17:21 38.45365 -77.89013 19783 ft 260 kts 235°
2026-05-05 17:21 38.44219 -77.90849 20297 ft 268 kts 237°
2026-05-05 17:21 38.43088 -77.92784 20807 ft 275 kts 238°
2026-05-05 17:22 38.40810 -77.96838 21820 ft 286 kts 239°
2026-05-05 17:22 38.39647 -77.98888 22319 ft 291 kts 239°
2026-05-05 17:22 38.38458 -78.01004 22823 ft 295 kts 239°
2026-05-05 17:22 38.37263 -78.03147 23325 ft 298 kts 239°
2026-05-05 17:23 38.36053 -78.05321 23829 ft 302 kts 239°
2026-05-05 17:23 38.34826 -78.07522 24333 ft 305 kts 240°
2026-05-05 17:23 38.33586 -78.09740 24785 ft 310 kts 240°
2026-05-05 17:23 38.32323 -78.11983 25237 ft 313 kts 240°
2026-05-05 17:24 38.31041 -78.14240 25688 ft 316 kts 240°
2026-05-05 17:24 38.29758 -78.16481 26134 ft 318 kts 240°
2026-05-05 17:24 38.28446 -78.18764 26586 ft 319 kts 240°
2026-05-05 17:24 38.27138 -78.21058 27037 ft 320 kts 241°
2026-05-05 17:25 38.25827 -78.23354 27482 ft 321 kts 241°
2026-05-05 17:25 38.24957 -78.24871 27776 ft 321 kts 241°
2026-05-05 17:25 38.23203 -78.27935 28371 ft 319 kts 242°
2026-05-05 17:25 38.21904 -78.30216 28823 ft 318 kts 242°
2026-05-05 17:26 38.20608 -78.32490 29272 ft 319 kts 242°
2026-05-05 17:26 38.19288 -78.34793 29721 ft 324 kts 242°
2026-05-05 17:26 38.17994 -78.37153 30094 ft 327 kts 246°
2026-05-05 17:26 38.16842 -78.39655 30477 ft 328 kts 250°
2026-05-05 17:27 38.15840 -78.42263 30861 ft 330 kts 254°
2026-05-05 17:27 38.14958 -78.44928 31241 ft 332 kts 256°
2026-05-05 17:27 38.14130 -78.47681 31624 ft 335 kts 257°
2026-05-05 17:27 38.13303 -78.50463 32005 ft 338 kts 257°
2026-05-05 17:28 38.12467 -78.53268 32383 ft 341 kts 257°
2026-05-05 17:28 38.11608 -78.56093 32761 ft 344 kts 257°
2026-05-05 17:28 38.10727 -78.58929 33138 ft 346 kts 256°
2026-05-05 17:28 38.09830 -78.61789 33516 ft 347 kts 256°
2026-05-05 17:29 38.08941 -78.64609 33887 ft 348 kts 257°
2026-05-05 17:29 38.08037 -78.67468 34263 ft 349 kts 257°
2026-05-05 17:29 38.07127 -78.70323 34639 ft 349 kts 257°
2026-05-05 17:29 38.06207 -78.73177 35014 ft 349 kts 257°
2026-05-05 17:30 38.05287 -78.76038 35390 ft 348 kts 257°
2026-05-05 17:30 38.04379 -78.78872 35763 ft 347 kts 258°
2026-05-05 17:30 38.03465 -78.81706 36138 ft 346 kts 258°
2026-05-05 17:30 38.02547 -78.84517 36512 ft 344 kts 258°
2026-05-05 17:31 38.01636 -78.87272 36838 ft 343 kts 259°
2026-05-05 17:31 38.00718 -78.90068 37109 ft 343 kts 259°
2026-05-05 17:31 37.99804 -78.92873 37383 ft 344 kts 259°
2026-05-05 17:31 37.98883 -78.95679 37656 ft 344 kts 259°
2026-05-05 17:32 37.97970 -78.98485 37932 ft 344 kts 260°
2026-05-05 17:32 37.97061 -79.01304 38206 ft 345 kts 260°
2026-05-05 17:32 37.96153 -79.04112 38476 ft 345 kts 260°
2026-05-05 17:32 37.95237 -79.06929 38749 ft 345 kts 260°
2026-05-05 17:33 37.94316 -79.09717 38974 ft 347 kts 261°
2026-05-05 17:33 37.93387 -79.12550 39197 ft 348 kts 260°
2026-05-05 17:33 37.92476 -79.15398 39422 ft 349 kts 261°
2026-05-05 17:33 37.91585 -79.18257 39642 ft 350 kts 261°
2026-05-05 17:34 37.90696 -79.21128 39873 ft 351 kts 260°
2026-05-05 17:34 37.89808 -79.24006 40104 ft 351 kts 260°
2026-05-05 17:34 37.88919 -79.26888 40276 ft 353 kts 260°
2026-05-05 17:34 37.88017 -79.29795 40378 ft 358 kts 258°
2026-05-05 17:35 37.86967 -79.32706 40421 ft 369 kts 255°
2026-05-05 17:35 37.84838 -79.37531 40430 ft 386 kts 249°
2026-05-05 17:35 37.83381 -79.40412 40573 ft 390 kts 247°
2026-05-05 17:36 37.81369 -79.44164 40992 ft 386 kts 246°
2026-05-05 17:36 37.79862 -79.46959 41283 ft 384 kts 247°
2026-05-05 17:36 37.78365 -79.49825 40846 ft 400 kts 247°
2026-05-05 17:36 37.76832 -79.52844 40563 ft 412 kts 248°
2026-05-05 17:37 37.75782 -79.54919 40496 ft 417 kts 248°
2026-05-05 17:37 37.72640 -79.61193 40433 ft 426 kts 248°
2026-05-05 17:38 37.69454 -79.67544 40443 ft 434 kts 247°
2026-05-05 17:38 37.66168 -79.73989 40445 ft 439 kts 247°
2026-05-05 17:39 37.62841 -79.80509 40438 ft 444 kts 246°
2026-05-05 17:39 37.59490 -79.87085 40426 ft 446 kts 247°
2026-05-05 17:40 37.56135 -79.93681 40423 ft 448 kts 246°
2026-05-05 17:40 37.52739 -80.00247 40427 ft 449 kts 246°
2026-05-05 17:41 37.49329 -80.06841 40452 ft 448 kts 246°
2026-05-05 17:41 37.45930 -80.13423 40518 ft 448 kts 246°
2026-05-05 17:42 37.42548 -80.20000 40510 ft 448 kts 246°
2026-05-05 17:42 37.39184 -80.26550 40495 ft 449 kts 246°
2026-05-05 17:43 37.35782 -80.33150 40503 ft 449 kts 246°
2026-05-05 17:43 37.32347 -80.39714 40525 ft 449 kts 246°
2026-05-05 17:44 37.28923 -80.46236 40536 ft 449 kts 246°
2026-05-05 17:44 37.25563 -80.52847 40534 ft 448 kts 247°
2026-05-05 17:45 37.22363 -80.59534 40581 ft 446 kts 248°
2026-05-05 17:45 37.19198 -80.66229 40596 ft 446 kts 248°
2026-05-05 17:46 37.16015 -80.72926 40555 ft 447 kts 248°
2026-05-05 17:46 37.12806 -80.79553 40570 ft 447 kts 247°
2026-05-05 17:47 37.09571 -80.86182 40646 ft 445 kts 248°
2026-05-05 17:47 37.06352 -80.92831 40617 ft 446 kts 248°
2026-05-05 17:48 37.03141 -80.99479 40602 ft 446 kts 247°
2026-05-05 17:48 36.99937 -81.06118 40635 ft 445 kts 247°
2026-05-05 17:49 36.96760 -81.12696 40635 ft 445 kts 246°
2026-05-05 17:49 36.93515 -81.19289 40641 ft 444 kts 247°
2026-05-05 17:50 36.90297 -81.25891 40632 ft 445 kts 247°
2026-05-05 17:50 36.87070 -81.32482 40624 ft 445 kts 247°
2026-05-05 17:51 36.83843 -81.39074 40636 ft 444 kts 247°
2026-05-05 17:51 36.80645 -81.45654 40665 ft 443 kts 246°
2026-05-05 17:52 36.77402 -81.52212 40652 ft 445 kts 246°
2026-05-05 17:52 36.74163 -81.58783 40634 ft 445 kts 246°
2026-05-05 17:53 36.70902 -81.65328 40645 ft 445 kts 245°
2026-05-05 17:53 36.67604 -81.71795 40675 ft 444 kts 245°
2026-05-05 17:54 36.64273 -81.78290 40672 ft 445 kts 245°
2026-05-05 17:54 36.60939 -81.84799 40639 ft 445 kts 245°
2026-05-05 17:55 36.57577 -81.91283 40639 ft 445 kts 245°
2026-05-05 17:55 36.54230 -81.97763 40652 ft 445 kts 245°
2026-05-05 17:56 36.50881 -82.04240 40667 ft 444 kts 245°
2026-05-05 17:56 36.47578 -82.10650 40730 ft 442 kts 245°
2026-05-05 17:57 36.44251 -82.17091 40696 ft 443 kts 244°
2026-05-05 17:57 36.40860 -82.23532 40626 ft 445 kts 244°
2026-05-05 17:58 36.37452 -82.29950 40631 ft 445 kts 244°
2026-05-05 17:58 36.34107 -82.36382 40697 ft 443 kts 244°
2026-05-05 17:59 36.30760 -82.42789 40718 ft 443 kts 244°
2026-05-05 17:59 36.27416 -82.49155 40702 ft 443 kts 244°
2026-05-05 18:00 36.24052 -82.55564 40690 ft 443 kts 244°
2026-05-05 18:00 36.20704 -82.61963 40723 ft 442 kts 244°
2026-05-05 18:01 36.17373 -82.68344 40762 ft 441 kts 244°
2026-05-05 18:01 36.14012 -82.74699 40749 ft 441 kts 244°
2026-05-05 18:02 36.10647 -82.81039 40746 ft 440 kts 244°
2026-05-05 18:02 36.07326 -82.87330 40780 ft 439 kts 244°
2026-05-05 18:03 36.03988 -82.93652 40782 ft 439 kts 243°
2026-05-05 18:03 36.00668 -82.99977 40769 ft 438 kts 243°
2026-05-05 18:04 35.97316 -83.06282 40738 ft 440 kts 243°
2026-05-05 18:04 35.93940 -83.12606 40660 ft 442 kts 243°
2026-05-05 18:05 35.90609 -83.18961 40726 ft 439 kts 244°
2026-05-05 18:05 35.87423 -83.25346 40822 ft 436 kts 245°
2026-05-05 18:06 35.84296 -83.31755 40816 ft 436 kts 245°
2026-05-05 18:06 35.81190 -83.38176 40762 ft 437 kts 245°
2026-05-05 18:07 35.78066 -83.44531 40804 ft 435 kts 244°
2026-05-05 18:07 35.74920 -83.50878 40854 ft 434 kts 244°
2026-05-05 18:08 35.71692 -83.57182 40799 ft 436 kts 243°
2026-05-05 18:08 35.68339 -83.63407 40774 ft 437 kts 242°
2026-05-05 18:09 35.64941 -83.69606 40842 ft 435 kts 242°
2026-05-05 18:09 35.61565 -83.75772 40844 ft 435 kts 242°
2026-05-05 18:10 35.58205 -83.81972 40805 ft 436 kts 242°
2026-05-05 18:10 35.54835 -83.88157 40836 ft 435 kts 242°
2026-05-05 18:11 35.51470 -83.94329 40832 ft 435 kts 242°
2026-05-05 18:11 35.48123 -84.00477 40800 ft 436 kts 242°
2026-05-05 18:12 35.44787 -84.06658 40844 ft 434 kts 242°
2026-05-05 18:12 35.41460 -84.12783 40895 ft 434 kts 242°
2026-05-05 18:13 35.38100 -84.18878 40850 ft 435 kts 241°
2026-05-05 18:13 35.34729 -84.24995 40802 ft 436 kts 241°
2026-05-05 18:14 35.31327 -84.31194 40831 ft 435 kts 241°
2026-05-05 18:14 35.27959 -84.37349 40862 ft 435 kts 242°
2026-05-05 18:15 35.24588 -84.43498 40846 ft 436 kts 241°
2026-05-05 18:15 35.21186 -84.49596 40820 ft 437 kts 241°
2026-05-05 18:16 35.17781 -84.55747 40846 ft 436 kts 241°
2026-05-05 18:16 35.14372 -84.61880 40865 ft 436 kts 241°
2026-05-05 18:17 35.10947 -84.68024 40846 ft 437 kts 240°
2026-05-05 18:17 35.07487 -84.74137 40875 ft 437 kts 240°
2026-05-05 18:18 35.04094 -84.80233 40883 ft 437 kts 241°
2026-05-05 18:18 35.00660 -84.86354 40878 ft 437 kts 240°
2026-05-05 18:19 34.97228 -84.92476 40904 ft 437 kts 240°
2026-05-05 18:19 34.93811 -84.98560 40912 ft 437 kts 240°
2026-05-05 18:20 34.90363 -85.04694 40886 ft 438 kts 240°
2026-05-05 18:20 34.86935 -85.10816 40914 ft 437 kts 240°
2026-05-05 18:21 34.83517 -85.16935 40953 ft 436 kts 240°
2026-05-05 18:21 34.80067 -85.23022 40950 ft 437 kts 240°
2026-05-05 18:22 34.76534 -85.29061 40928 ft 438 kts 238°
2026-05-05 18:22 34.72877 -85.34950 40950 ft 439 kts 237°
2026-05-05 18:23 34.69771 -85.39835 40967 ft 439 kts 237°
2026-05-05 18:23 34.66026 -85.45705 40946 ft 440 kts 237°
2026-05-05 18:24 34.62283 -85.51580 40943 ft 440 kts 237°
2026-05-05 18:24 34.58549 -85.57458 40984 ft 439 kts 237°
2026-05-05 18:25 34.54829 -85.63330 41001 ft 439 kts 237°
2026-05-05 18:25 34.51112 -85.69216 40976 ft 439 kts 237°
2026-05-05 18:26 34.47395 -85.75099 40980 ft 439 kts 237°
2026-05-05 18:26 34.43636 -85.80947 41007 ft 439 kts 237°
2026-05-05 18:27 34.39902 -85.86792 40996 ft 430 kts 237°
2026-05-05 18:27 34.38100 -85.89579 40620 ft 408 kts 237°
2026-05-05 18:27 34.36428 -85.92174 40163 ft 384 kts 237°
2026-05-05 18:27 34.34832 -85.94659 39704 ft 363 kts 237°
2026-05-05 18:28 34.31867 -85.99269 38790 ft 332 kts 237°
2026-05-05 18:28 34.30479 -86.01423 38333 ft 317 kts 237°
2026-05-05 18:28 34.29157 -86.03481 37876 ft 304 kts 237°
2026-05-05 18:29 34.27885 -86.05469 37418 ft 292 kts 237°
2026-05-05 18:29 34.26651 -86.07380 36961 ft 283 kts 237°
2026-05-05 18:29 34.25482 -86.09204 36511 ft 274 kts 237°
2026-05-05 18:29 34.24326 -86.10997 36055 ft 266 kts 237°
2026-05-05 18:30 34.23202 -86.12739 35599 ft 259 kts 237°
2026-05-05 18:30 34.22108 -86.14441 35143 ft 253 kts 237°
2026-05-05 18:30 34.21042 -86.16115 34586 ft 251 kts 237°
2026-05-05 18:30 34.19984 -86.17800 33958 ft 253 kts 237°
2026-05-05 18:31 34.18930 -86.19505 33334 ft 253 kts 237°
2026-05-05 18:31 34.17870 -86.21214 32711 ft 254 kts 236°
2026-05-05 18:31 34.16812 -86.22902 32095 ft 255 kts 236°
2026-05-05 18:31 34.15738 -86.24615 31470 ft 255 kts 236°
2026-05-05 18:32 34.14657 -86.26320 30847 ft 256 kts 235°
2026-05-05 18:32 34.13554 -86.28012 30223 ft 256 kts 234°
2026-05-05 18:32 34.12442 -86.29691 29600 ft 256 kts 234°
2026-05-05 18:32 34.11337 -86.31370 28977 ft 256 kts 235°
2026-05-05 18:33 34.10245 -86.33064 28352 ft 255 kts 235°
2026-05-05 18:33 34.09156 -86.34757 27727 ft 255 kts 235°
2026-05-05 18:33 34.08073 -86.36419 27110 ft 255 kts 234°
2026-05-05 18:33 34.06978 -86.38098 26486 ft 254 kts 235°
2026-05-05 18:34 34.05891 -86.39782 25861 ft 254 kts 235°
2026-05-05 18:34 34.04800 -86.41462 25235 ft 254 kts 234°
2026-05-05 18:34 34.03717 -86.43136 24611 ft 253 kts 234°
2026-05-05 18:34 34.02632 -86.44815 23984 ft 253 kts 234°
2026-05-05 18:35 34.01533 -86.46467 23360 ft 253 kts 232°
2026-05-05 18:35 34.00374 -86.48061 22735 ft 252 kts 230°
2026-05-05 18:35 33.99180 -86.49607 22110 ft 252 kts 229°
2026-05-05 18:35 33.97984 -86.51107 21494 ft 251 kts 228°
2026-05-05 18:36 33.96764 -86.52613 20869 ft 251 kts 227°
2026-05-05 18:36 33.95540 -86.54104 20245 ft 250 kts 227°
2026-05-05 18:36 33.94319 -86.55595 19619 ft 249 kts 227°
2026-05-05 18:36 33.93111 -86.57083 18994 ft 248 kts 227°
2026-05-05 18:37 33.91905 -86.58560 18370 ft 247 kts 226°
2026-05-05 18:37 33.90701 -86.60026 17746 ft 246 kts 226°
2026-05-05 18:37 33.89504 -86.61489 17121 ft 245 kts 226°
2026-05-05 18:37 33.88316 -86.62951 16497 ft 244 kts 226°
2026-05-05 18:38 33.87142 -86.64384 15878 ft 243 kts 225°
2026-05-05 18:38 33.85957 -86.65820 15254 ft 241 kts 225°
2026-05-05 18:38 33.84777 -86.67255 14632 ft 240 kts 225°
2026-05-05 18:38 33.83606 -86.68689 14019 ft 241 kts 225°
2026-05-05 18:39 33.82431 -86.70127 13395 ft 240 kts 225°
2026-05-05 18:39 33.81257 -86.71550 12776 ft 239 kts 224°
2026-05-05 18:39 33.80085 -86.72956 12154 ft 237 kts 221°
2026-05-05 18:39 33.78670 -86.73940 11536 ft 235 kts 200°
2026-05-05 18:40 33.77083 -86.74401 10916 ft 234 kts 189°
2026-05-05 18:40 33.75464 -86.74595 10289 ft 233 kts 184°
2026-05-05 18:40 33.73843 -86.74671 9665 ft 232 kts 181°
2026-05-05 18:40 33.72233 -86.74706 9049 ft 226 kts 181°
2026-05-05 18:41 33.70774 -86.74736 8432 ft 196 kts 180°
2026-05-05 18:41 33.69509 -86.74749 7784 ft 168 kts 180°
2026-05-05 18:41 33.68444 -86.74738 7150 ft 140 kts 179°
2026-05-05 18:41 33.67524 -86.74727 6492 ft 128 kts 179°
2026-05-05 18:42 33.66646 -86.74733 5836 ft 123 kts 180°
2026-05-05 18:42 33.65810 -86.74730 5221 ft 121 kts 180°
2026-05-05 18:42 33.64974 -86.74731 4578 ft 120 kts 180°
2026-05-05 18:42 33.64136 -86.74731 3952 ft 120 kts 179°
2026-05-05 18:43 33.63302 -86.74734 3329 ft 120 kts 179°
2026-05-05 18:43 33.62465 -86.74733 2702 ft 120 kts 180°
2026-05-05 18:43 33.61625 -86.74740 2075 ft 122 kts 182°
2026-05-05 18:43 33.60771 -86.74796 1468 ft 122 kts 185°
2026-05-05 18:44 33.59960 -86.74804 1128 ft 115 kts 176°
2026-05-05 18:44 33.59073 -86.74704 1009 ft 143 kts 179°
2026-05-05 18:44 33.58143 -86.74699 873 ft 133 kts 180°
2026-05-05 18:44 33.57262 -86.74710 685 ft 118 kts 178°
2026-05-05 18:45 33.56522 -86.74702 647 ft 91 kts 187°
2026-05-05 18:45 33.55970 -86.74753 647 ft 57 kts 176°
2026-05-05 18:45 33.55822 -86.74739 647 ft 0 kts 175°
2026-05-05 18:45 33.55808 -86.74737 647 ft 6 kts 175°
2026-05-05 18:46 33.55735 -86.74728 647 ft 14 kts 172°
2026-05-05 18:46 33.55673 -86.74676 647 ft 11 kts 87°
2026-05-05 18:46 33.55674 -86.74603 647 ft 0 kts 90°